Regional Weather Roundup
Issued by NWS

Home | Current Version | Previous Version | Text Only | Print | Product List | Glossary On
Versions: 1 2 3 4 5 6 7 8 9 10 11 12 13 14 15 16 17 18 19 20 21 22 23 24 25 26 27 28 29 30 31 32 33 34 35 36 37 38 39 40 41 42 43 44 45 46 47 48 49 50
000
ASUS43 KTOP 180659
RWRKS

WEATHER ROUNDUP FOR KANSAS
NATIONAL WEATHER SERVICE GOODLAND KS
100 AM CST THU DEC 18 2014

NOTE:  "FAIR" INDICATES FEW OR NO CLOUDS BELOW 12,000 FEET WITH NO
SIGNIFICANT WEATHER AND/OR OBSTRUCTIONS TO VISIBILITY.

KSZ001>006-013>018-027>032-041>047-180800-
NORTHWEST KANSAS

CITY           SKY/WX    TMP DP  RH WIND       PRES   REMARKS
GOODLAND       LGT SNOW  25  23  92 CALM      30.05S FOG
HAYS           CLOUDY    27  18  69 E7        30.14S
HILL CITY      CLOUDY    26  24  92 E6        30.14S FOG
RUSSELL        LGT SNOW  26  25  96 NE8       30.14F FOG
$$

KSZ061>065-074>080-084>089-180800-
SOUTHWEST KANSAS

CITY           SKY/WX    TMP DP  RH WIND       PRES   REMARKS
DODGE CITY     LGT SNOW  29  27  92 E5        30.08F FOG
ELKHART          N/A     31  24  75 NW7         N/A
GARDEN CITY    CLOUDY    29  28  96 E7        30.06S FOG
GREAT BEND     CLOUDY    28  23  80 E3        30.14F
LIBERAL        CLOUDY    36  30  80 SE7       30.04F
$$

KSZ066>073-081>083-090>101-180800-
SOUTHEAST KANSAS

CITY           SKY/WX    TMP DP  RH WIND       PRES   REMARKS
CHANUTE        CLOUDY    31  30  96 NE3       30.20S FOG
COFFEYVILLE    CLOUDY    33  32  96 NE6       30.20S FOG
HUTCHINSON     LGT SNOW  30  26  85 E8        30.14F VSB 1
MEDICINE LODGE   N/A     31  31 100 E5        30.12F
NEWTON         CLOUDY    28  23  80 E10       30.16F WCI  19
PARSONS        CLOUDY    33  32  96 VRB3      30.20F FOG
WICHITA INTL   LGT SNOW  31  29  92 E7        30.15F FOG
WICHITA JABRA  LGT SNOW  29  28  96 E5        30.15F FOG
WICHITA MCCONL LGT SNOW  32  30  93 E7        30.15F FOG
WINFIELD       CLOUDY    32  31  96 E7        30.16F FOG
$$

KSZ007>012-019>026-033>040-048>060-102>105-180800-
NORTHEAST KANSAS

CITY           SKY/WX    TMP DP  RH WIND       PRES   REMARKS
CONCORDIA      SNOW      25  24  96 E7        30.18F VSB 1/2
EMPORIA        LGT SNOW  28  27  96 E5        30.20S FOG
LAWRENCE       LGT SNOW  28  26  92 NE7       30.24F FOG
MANHATTAN      LGT SNOW  27  26  96 E7        30.21F FOG
OLATHE IND     LGT SNOW  28  27  96 NE6       30.23F FOG
OLATHE EXE     LGT SNOW  28  27  96 E6        30.22F FOG
SALINA         LGT SNOW  30  27  88 E5        30.19F VSB 1
TOPEKA BILLARD LGT SNOW  29  27  92 E6        30.24F FOG
TOPEKA FORBES  LGT SNOW  29  26  89 CALM      30.22F FOG
$$


USA.gov is the U.S. government's official web portal to all federal, state and local government web resources and services.